Regional Weather Roundup
Issued by NWS Bismarck, ND

Home | Current Version | Previous Version | Text Only | Print | Product List | Glossary On
Versions: 1 2 3 4 5 6 7 8 9 10 11 12 13 14 15 16 17 18 19 20 21 22 23 24 25 26 27 28 29 30 31 32 33 34 35 36 37 38 39 40 41 42 43 44 45 46 47 48 49 50
000
ASUS43 KBIS 241102
RWRBIS

NWR BROADCAST TEXT
NATIONAL WEATHER SERVICE BISMARCK ND
600 AM CDT WED AUG 24 2016

NOTE: "FAIR" INDICATES FEW OR NO CLOUDS BELOW 12,000 FEET WITH NO
SIGNIFICANT WEATHER AND/OR OBSTRUCTIONS TO VISIBILITY.


CITY           SKY/WX    TMP DP  RH WIND       PRES   REMARKS
WILLISTON      MOCLDY    60  47  61 W18G28    29.95R
MINOT          CLEAR     57  49  74 SW13      29.89S
MINOT AFB      CLEAR     54  49  83 W9        29.88S
BISMARCK       CLEAR     56  48  74 W9        29.98R
DICKINSON      CLEAR     53  47  79 W16       30.01R
GARRISON         N/A     55  49  80 W10       29.95R
HETTINGER ARPT CLEAR     48  44  86 W6        30.08R
JAMESTOWN      CLEAR     57  50  77 W13       29.90R
CARRINGTON     FAIR      55  50  82 W10       29.91R
HAZEN          FAIR      52  46  82 SW10      29.99S
OAKES            N/A    N/A N/A N/A MISG        N/A
STANLEY        FAIR      54  52  94 W14       29.94R
$$

CITY           SKY/WX    TMP DP  RH WIND       PRES   REMARKS
GRAND FORKS    PTCLDY    58  52  80 SW8       29.81R
GRAND FORKS AF PTCLDY    54  51  89 W7        29.82R
DEVILS LAKE    CLEAR     58  51  78 W13       29.86R
FARGO          CLEAR     56  50  80 W6        29.85R
CAVALIER       FAIR      55  50  82 W9        29.78S
GRAFTON        FAIR      54  52  94 SW6       29.81S
GWINNER        FAIR      55  52  88 W9        29.92R
LANGDON        CLOUDY    52  50  93 SW8       29.82R
ROLLA          FAIR      54  50  87 W8        29.83S
$$

CITY           SKY/WX    TMP DP  RH WIND       PRES   REMARKS
ABERDEEN       CLEAR     56  47  71 W5        29.96R
MOBRIDGE       PTCLDY    56  44  64 W5        30.00R
BUFFALO          N/A     53  46  77 W14       30.05R
RAPID CITY     CLOUDY    61  41  47 N18       30.12S
GLASGOW        CLOUDY    57  50  77 W20       30.04S
SIDNEY         CLEAR     57  49  74 W17G25    29.99R
WOLF POINT     PTCLDY    58  50  75 W17G28    30.03R
GLENDIVE       CLEAR     55  49  80 W20G26    30.06S
MILES CITY     CLEAR     56  46  69 W12       30.13R
BAKER          CLEAR     52  46  80 W12       30.12R
$$

CITY           SKY/WX    TMP DP  RH WIND       PRES   REMARKS
BILLINGS       CLEAR     53  43  68 W3        30.23S
GREAT FALLS    LGT RAIN  52  45  77 NW8       30.30S
$$





USA.gov is the U.S. government's official web portal to all federal, state and local government web resources and services.